| time (UTC) | temp F | wind direction | speed MPH | gust MPH | rain 1hr in | rain 24hr in | rain mn in | humidity % | barometer mb |
| 20260506094536 | 48 | 185 | 12.0 | 19.0 | 0.00 | 0.00 | 0.00 | 97 | 1014.8 |
| 20260506093035 | 47 | 209 | 12.0 | 19.0 | 0.00 | 0.00 | 0.00 | 97 | 1014.7 |
| 20260506091534 | 46 | 199 | 8.0 | 14.0 | 0.00 | 0.00 | 0.00 | 97 | 1014.6 |
| 20260506090032 | 45 | 216 | 9.0 | 14.0 | 0.00 | 0.00 | 0.00 | 97 | 1014.4 |
| 20260506084531 | 45 | 232 | 9.0 | 15.0 | 0.00 | 0.00 | 0.00 | 97 | 1014.4 |
| 20260506083032 | 45 | 220 | 8.0 | 17.0 | 0.00 | 0.00 | 0.00 | 97 | 1014.3 |
| 20260506081532 | 45 | 151 | 9.0 | 16.0 | 0.00 | 0.00 | 0.00 | 97 | 1013.9 |
| 20260506073029 | 43 | 156 | 8.0 | 18.0 | 0.00 | 0.00 | 0.00 | 97 | 1013.9 |
| 20260506071526 | 43 | 175 | 10.0 | 16.0 | 0.00 | 0.00 | 0.00 | 96 | 1013.9 |
| 20260506061525 | 44 | 180 | 6.0 | 15.0 | 0.00 | 0.00 | 0.00 | 94 | 1013.9 |
| 20260506044501 | 48 | 185 | 6.0 | 10.0 | 0.00 | 0.00 | 0.00 | 91 | 1013.7 |
| 20260506043102 | 47 | 171 | 8.0 | 12.0 | 0.00 | 0.00 | 0.00 | 91 | 1013.7 |
| 20260506041603 | 49 | 210 | 7.0 | 12.0 | 0.00 | 0.00 | 0.00 | 91 | 1013.7 |
| 20260506040056 | 49 | 185 | 4.0 | 9.0 | 0.00 | 0.00 | 0.00 | 92 | 1013.6 |
| 20260506034559 | 49 | 230 | 8.0 | 13.0 | 0.00 | 0.00 | 0.00 | 92 | 1013.6 |
| 20260506033052 | 49 | 193 | 8.0 | 13.0 | 0.00 | 0.00 | 0.00 | 92 | 1013.6 |
| 20260506031548 | 49 | 185 | 7.0 | 14.0 | 0.00 | 0.00 | 0.00 | 92 | 1013.5 |
| 20260506030045 | 49 | 202 | 8.0 | 18.0 | 0.00 | 0.00 | 0.00 | 92 | 1013.7 |
| 20260506024551 | 49 | 218 | 9.0 | 19.0 | 0.00 | 0.00 | 0.00 | 92 | 1013.5 |
| 20260506023044 | 49 | 233 | 8.0 | 15.0 | 0.00 | 0.00 | 0.00 | 90 | 1013.6 |
| 20260506021544 | 49 | 199 | 7.0 | 15.0 | 0.00 | 0.00 | 0.00 | 89 | 1013.5 |
| 20260506020050 | 50 | 205 | 5.0 | 12.0 | 0.00 | 0.00 | 0.00 | 89 | 1013.6 |
| 20260506014542 | 50 | 208 | 6.0 | 14.0 | 0.00 | 0.00 | 0.00 | 87 | 1013.7 |
| 20260506013041 | 51 | 209 | 6.0 | 15.0 | 0.00 | 0.00 | 0.00 | 85 | 1013.6 |
| 20260506011601 | 52 | 226 | 5.0 | 16.0 | 0.00 | 0.00 | 0.00 | 83 | 1013.4 |
| 20260506010040 | 53 | 150 | 8.0 | 15.0 | 0.00 | 0.00 | 0.00 | 81 | 1013.4 |
| 20260506004552 | 54 | 198 | 5.0 | 15.0 | 0.00 | 0.00 | 0.00 | 80 | 1013.2 |
| 20260506003035 | 54 | 252 | 5.0 | 13.0 | 0.00 | 0.00 | 0.00 | 78 | 1012.8 |
| 20260506001536 | 55 | 175 | 7.0 | 15.0 | 0.00 | 0.00 | 0.00 | 77 | 1012.6 |
| 20260506000051 | 55 | 232 | 5.0 | 12.0 | 0.00 | 0.00 | 0.00 | 76 | 1012.5 |
| 20260505234539 | 55 | 185 | 8.0 | 14.0 | 0.00 | 0.00 | 0.00 | 75 | 1012.3 |
| 20260505233028 | 58 | 171 | 7.0 | 12.0 | 0.00 | 0.00 | 0.00 | 68 | 1012.0 |
| 20260505231526 | 58 | 210 | 7.0 | 16.0 | 0.00 | 0.00 | 0.00 | 67 | 1011.7 |
| 20260505230046 | 59 | 215 | 6.0 | 13.0 | 0.00 | 0.00 | 0.00 | 66 | 1011.4 |
| 20260505224535 | 58 | 190 | 5.0 | 12.0 | 0.00 | 0.00 | 0.00 | 67 | 1011.3 |
| 20260505223025 | 57 | 163 | 7.0 | 13.0 | 0.00 | 0.00 | 0.00 | 65 | 1011.4 |
| 20260505221522 | 57 | 185 | 7.0 | 13.0 | 0.00 | 0.00 | 0.00 | 65 | 1011.1 |
| 20260505220020 | 58 | 185 | 8.0 | 15.0 | 0.00 | 0.00 | 0.00 | 63 | 1010.9 |
| 20260505214523 | 57 | 170 | 7.0 | 15.0 | 0.00 | 0.00 | 0.00 | 65 | 1010.8 |
| 20260505213023 | 56 | 207 | 8.0 | 20.0 | 0.00 | 0.00 | 0.00 | 66 | 1010.7 |
| 20260505211526 | 55 | 175 | 13.0 | 20.0 | 0.00 | 0.00 | 0.00 | 66 | 1010.7 |
| 20260505210017 | 56 | 175 | 11.0 | 18.0 | 0.00 | 0.00 | 0.00 | 67 | 1010.8 |
| 20260505204517 | 56 | 180 | 10.0 | 19.0 | 0.00 | 0.00 | 0.00 | 64 | 1010.7 |
| 20260505203016 | 55 | 180 | 12.0 | 19.0 | 0.00 | 0.00 | 0.00 | 66 | 1010.6 |
| 20260505201515 | 59 | 180 | 11.0 | 19.0 | 0.00 | 0.00 | 0.00 | 61 | 1010.5 |
| 20260505200014 | 61 | 209 | 12.0 | 19.0 | 0.00 | 0.00 | 0.00 | 60 | 1010.5 |
| 20260505194515 | 59 | 185 | 12.0 | 22.0 | 0.00 | 0.00 | 0.00 | 62 | 1010.4 |
| 20260505193018 | 60 | 193 | 11.0 | 20.0 | 0.00 | 0.00 | 0.00 | 62 | 1010.4 |
| 20260505191514 | 62 | 175 | 12.0 | 20.0 | 0.00 | 0.00 | 0.00 | 60 | 1010.3 |
| 20260505190013 | 60 | 210 | 11.0 | 22.0 | 0.00 | 0.00 | 0.00 | 62 | 1010.1 |
| 20260505184518 | 62 | 201 | 12.0 | 20.0 | 0.00 | 0.00 | 0.00 | 60 | 1010.1 |
| 20260505183016 | 64 | 193 | 11.0 | 21.0 | 0.00 | 0.00 | 0.00 | 58 | 1009.9 |
| 20260505181509 | 64 | 244 | 9.0 | 19.0 | 0.00 | 0.00 | 0.00 | 60 | 1010.0 |
| 20260505180006 | 60 | 185 | 10.0 | 19.0 | 0.00 | 0.00 | 0.00 | 63 | 1010.1 |
| 20260505174506 | 60 | 175 | 11.0 | 18.0 | 0.00 | 0.00 | 0.00 | 63 | 1010.2 |
| 20260505173002 | 59 | 195 | 10.0 | 19.0 | 0.00 | 0.00 | 0.00 | 66 | 1010.4 |
| 20260505171502 | 58 | 180 | 11.0 | 19.0 | 0.00 | 0.00 | 0.00 | 67 | 1010.5 |
| 20260505170100 | 58 | 196 | 11.0 | 18.0 | 0.00 | 0.02 | 0.00 | 67 | 1010.5 |
| 20260505164606 | 59 | 215 | 10.0 | 19.0 | 0.00 | 0.02 | 0.00 | 66 | 1010.7 |
| 20260505163058 | 58 | 200 | 10.0 | 20.0 | 0.00 | 0.02 | 0.00 | 66 | 1010.6 |
| 20260505161602 | 57 | 212 | 13.0 | 20.0 | 0.00 | 0.02 | 0.00 | 67 | 1010.6 |
| 20260505153054 | 58 | 185 | 10.0 | 18.0 | 0.00 | 0.11 | 0.00 | 66 | 1010.9 |
| 20260505151550 | 55 | 166 | 10.0 | 18.0 | 0.00 | 0.11 | 0.00 | 72 | 1010.7 |
| 20260505150108 | 52 | 227 | 7.0 | 16.0 | 0.00 | 0.18 | 0.00 | 74 | 1010.6 |
| 20260505124551 | 53 | 218 | 6.0 | 14.0 | 0.00 | 0.24 | 0.00 | 67 | 1010.9 |
| 20260505123050 | 56 | 270 | 8.0 | 15.0 | 0.00 | 0.24 | 0.00 | 65 | 1010.6 |
| 20260505121605 | 52 | 195 | 6.0 | 10.0 | 0.00 | 0.24 | 0.00 | 79 | 1010.4 |
| 20260505120033 | 47 | 166 | 5.0 | 11.0 | 0.00 | 0.24 | 0.00 | 82 | 1010.3 |
| 20260505114535 | 46 | 170 | 6.0 | 13.0 | 0.00 | 0.24 | 0.00 | 81 | 1010.3 |
| 20260505113032 | 46 | 180 | 8.0 | 14.0 | 0.00 | 0.24 | 0.00 | 82 | 1010.3 |
| 20260505111537 | 46 | 185 | 5.0 | 11.0 | 0.00 | 0.24 | 0.00 | 80 | 1010.3 |
| 20260505101523 | 47 | 198 | 7.0 | 15.0 | 0.00 | 0.25 | 0.00 | 82 | 1009.8 |
| 20260505100032 | 46 | 225 | 6.0 | 14.0 | 0.00 | 0.26 | 0.00 | 83 | 1009.7 |